This is the latest recevied weather packets stored in our database for station/object N8VDS-10. If no packets are shown the sender has not sent any weather packets the latest 10 day(s).
| Time | Temp. | Humidity | Pressure | Rain* | Wind** | Luminosity | Snow |
|---|---|---|---|---|---|---|---|
| 1777758677 | 8.89° C | 38% | 1019.2 hPa | 0 mm | - | 119 W/m² | - |
| 1777758373 | 8.89° C | 38% | 1019.4 hPa | 0 mm | - | 265 W/m² | - |
| 1777758070 | 8.89° C | 38% | 1019.5 hPa | 0 mm | - | 135 W/m² | - |
| 1777757768 | 9.44° C | 40% | 1019.4 hPa | 0 mm | - | 154 W/m² | - |
| 1777757464 | 8.89° C | 39% | 1019.3 hPa | 0 mm | - | 295 W/m² | - |
| 1777757164 | 9.44° C | 38% | 1019.3 hPa | 0 mm | - | 497 W/m² | - |
| 1777756861 | 8.89° C | 39% | 1019.3 hPa | 0 mm | - | 171 W/m² | - |
| 1777756556 | 9.44° C | 38% | 1019.4 hPa | 0 mm | - | 300 W/m² | - |
| 1777756254 | 8.89° C | 38% | 1019.5 hPa | 0 mm | - | 432 W/m² | - |
| 1777755951 | 8.89° C | 40% | 1019.3 hPa | 0 mm | - | 201 W/m² | - |
| 1777755648 | 8.89° C | 40% | 1019.3 hPa | 0 mm | - | 171 W/m² | - |
| 1777755344 | 8.33° C | 40% | 1019.4 hPa | 0 mm | - | 280 W/m² | - |
| 1777755042 | 8.33° C | 41% | 1019.6 hPa | 0 mm | - | 322 W/m² | - |
| 1777754738 | 8.33° C | 40% | 1019.6 hPa | 0 mm | - | 202 W/m² | - |
| 1777754436 | 8.89° C | 39% | 1019.6 hPa | 0 mm | - | 221 W/m² | - |
| 1777754132 | 10° C | 38% | 1019.6 hPa | 0 mm | - | 347 W/m² | - |
| 1777753830 | 8.89° C | 40% | 1019.5 hPa | 0 mm | - | 678 W/m² | - |
| 1777753525 | 8.33° C | 39% | 1019.7 hPa | 0 mm | - | 762 W/m² | - |
| 1777753224 | 8.33° C | 40% | 1019.7 hPa | 0 mm | - | 224 W/m² | - |
| 1777752920 | 8.33° C | 42% | 1019.8 hPa | 0 mm | - | 190 W/m² | - |
| 1777752617 | 8.33° C | 40% | 1020.1 hPa | 0 mm | - | 214 W/m² | - |
| 1777752312 | 8.33° C | 41% | 1020.2 hPa | 0 mm | - | 222 W/m² | - |
| 1777752011 | 8.33° C | 41% | 1020.1 hPa | 0 mm | - | 236 W/m² | - |
| 1777751708 | 8.33° C | 42% | 1020.2 hPa | 0 mm | - | 186 W/m² | - |
| 1777751403 | 8.33° C | 40% | 1020.2 hPa | 0 mm | - | 190 W/m² | - |
* Rain latest hour (hover to see other rain measurements)
** Current wind speed in m/s (hover to see current wind gust speed)